SINOD-D 3

Last updated on Sat Aug 30 2025 00:03:48 GMT+0000 (Coordinated Universal Time)

1 40977U 15058P 25241.05211320 .00005489 00000+0 47460-3 0 9993 2 40977 64.7725 106.1037 0141230 171.3210 189.0396 14.90779543 71153
UTC large
Height (km)
Speed (km/s)
/
Latitude / Longitude
Inclination (degrees)
Orbital Period (minutes)
Azimuth
Elevation
Range (km)
Doppler Factor

Next 0 passes for location: London (51.5072 / 0.1276)

Sorry there are no passes over London.